This is the latest recevied weather packets stored in our database for station/object KC7WRB. If no packets are shown the sender has not sent any weather packets the latest 10 day(s).
| Time | Temp. | Humidity | Pressure | Rain* | Wind** | Luminosity | Snow |
|---|---|---|---|---|---|---|---|
| 1777595055 | 21.11° C | 17% | 1015.9 hPa | 0 mm | - | 378 W/m² | - |
| 1777594752 | 20.56° C | 18% | 1015.7 hPa | 0 mm | - | 404 W/m² | - |
| 1777594448 | 20.56° C | 17% | 1015.9 hPa | 0 mm | - | 221 W/m² | - |
| 1777594144 | 20.56° C | 17% | 1015.9 hPa | 0 mm | - | 461 W/m² | - |
| 1777593840 | 21.11° C | 17% | 1016 hPa | 0 mm | - | 479 W/m² | - |
| 1777593537 | 21.67° C | 16% | 1016 hPa | 0 mm | - | 491 W/m² | - |
| 1777593236 | 21.11° C | 16% | 1016.1 hPa | 0 mm | - | 498 W/m² | - |
| 1777592936 | 21.11° C | 17% | 1015.7 hPa | 0 mm | - | 222 W/m² | - |
| 1777592631 | 20.56° C | 19% | 1015.9 hPa | 0 mm | - | 550 W/m² | - |
| 1777592328 | 20.56° C | 17% | 1015.5 hPa | 0 mm | - | 518 W/m² | - |
| 1777592024 | 20.56° C | 17% | 1015.9 hPa | 0 mm | - | 525 W/m² | - |
| 1777591721 | 21.11° C | 18% | 1015.9 hPa | 0 mm | - | 544 W/m² | - |
| 1777591416 | 20.56° C | 18% | 1015.9 hPa | 0 mm | - | 556 W/m² | - |
| 1777591112 | 20.56° C | 18% | 1016.1 hPa | 0 mm | - | 603 W/m² | - |
| 1777590807 | 20.56° C | 19% | 1016 hPa | 0 mm | - | 685 W/m² | - |
| 1777590504 | 20.56° C | 17% | 1015.9 hPa | 0 mm | - | 402 W/m² | - |
| 1777590201 | 20.56° C | 17% | 1016.1 hPa | 0 mm | - | 445 W/m² | - |
| 1777589898 | 21.11° C | 17% | 1016.1 hPa | 0 mm | - | 582 W/m² | - |
| 1777589593 | 21.11° C | 16% | 1016.4 hPa | 0 mm | - | 564 W/m² | - |
| 1777589291 | 21.11° C | 16% | 1016.3 hPa | 0 mm | - | 667 W/m² | - |
| 1777588989 | 21.11° C | 17% | 1016.4 hPa | 0 mm | - | 501 W/m² | - |
| 1777588684 | 21.67° C | 16% | 1016.5 hPa | 0 mm | - | 628 W/m² | - |
| 1777588380 | 21.67° C | 17% | 1016.3 hPa | 0 mm | - | 629 W/m² | - |
| 1777588076 | 20.56° C | 17% | 1016.7 hPa | 0 mm | - | 769 W/m² | - |
| 1777587772 | 21.11° C | 16% | 1016.5 hPa | 0 mm | - | 684 W/m² | - |
* Rain latest hour (hover to see other rain measurements)
** Current wind speed in m/s (hover to see current wind gust speed)